Minangkabau Airport

Jump to: basic info | weather | frequencies | runways | comments

Related pages: nearby airports | nearby navaids | notams | map

Basic information (top)

Codes: PDG WIPT
Location: lon -0.786917, lat 100.280998, elev 18 ft / 5 m msl
Status: medium_airport
Scheduled airline service: yes
Links: Wikipedia Mobile

Weather (top)

Current conditions (rec'd 2015/02/28 04:30Z):

WIPT 280430Z 27005KT 230V300 9999 SCT020 31/25 Q1010

Airport forecast (rec'd 2015/02/27 00:00Z):

TAF WIPT 272300Z 2800/2824 VRB03KT 7000 SCT020 
      BECMG 2802/2804 24006KT BKN018 
      TEMPO 2805/2808 19004KT 3000 RA 
      BECMG 2808/2810 VRB02KT 6000

Frequencies (top)

Verify before use: may be inaccurate or out of date.

APP: 124 MHz (PADANG APP)
ATIS: 127.25 MHz (ATIS)
TWR: 118.3 MHz (MINANG TWR)

Runways (top)

15/33: 9,020 x 148 ft (2,749 x 45 m) — paved — lighted

Latest comments (top)

No comments yet for Minangkabau Airport

More... (top)

See also NOTAMs and nearby airports and navaids, or visit the Minangkabau Airport page at the main OurAirports website..